Date String (YYYY-MM-DD hh:mm:ss) UTC,Instrument flags,absolute air pressure of the measurement (hPa),sample flow rate (lpm),inlet stack bypass flow (lpm),air temperature of the measurement (°C),ambient temperature measured by the external sensor (°C),aerosol sample conditioner tube jacket temperature (°C),OPC LED temperature (°C),internal box temperature (°C),relative humidity of the measurement (%),span deviation,mass concentration of particles derived from Lorenz-Mie calculation of OPC scattering (μg/m³),mass concentration of particles derived from Lorenz-Mie calculation of OPC scattering (μg/m³),mass concentration of particles derived from Lorenz-Mie calculation of OPC scattering (μg/m³)
DateTimeUTC,F1_M11,P_M11,Q1_M11,Q2_M11,T1_M11,T2_M11,T3_M11,T4_M11,T5_M11,U1_M11,ZSPAN_M11,X0_M11,X2_M11,X1_M11
2024-05-24 00:00:00,SystemResetWarning,0818.6,5.00,000.00,029.7,026.7,000.0,038.3,030.4,013.4,0000.0,0009.70,0003.95,0002.81
2024-05-24 00:01:00,SystemResetWarning,0818.5,5.02,000.00,029.5,026.8,000.0,038.3,030.3,013.6,0000.0,0009.56,0003.88,0002.78
2024-05-24 00:02:00,SystemResetWarning,0818.5,5.00,000.00,029.4,027.1,000.0,038.1,030.6,013.2,0000.0,0010.51,0003.83,0002.73
2024-05-24 00:03:00,SystemResetWarning,0818.5,5.00,000.00,029.4,027.5,000.0,038.1,030.8,013.1,0000.0,0010.53,0003.78,0002.67
2024-05-24 00:04:00,SystemResetWarning,0818.5,5.01,000.00,029.5,027.8,000.0,038.0,030.9,013.3,0000.0,0010.04,0003.73,0002.60
2024-05-24 00:05:00,SystemResetWarning,0818.4,4.99,000.00,029.5,028.1,000.0,038.0,031.1,013.2,0000.0,0009.95,0003.64,0002.54
2024-05-24 00:06:00,SystemResetWarning,0818.4,5.00,000.00,029.5,028.3,000.0,038.0,031.2,013.0,0000.0,0010.31,0003.56,0002.48
2024-05-24 00:07:00,SystemResetWarning,0818.4,5.00,000.00,029.6,028.5,000.0,038.0,031.3,013.1,0000.0,0010.14,0003.46,0002.41
2024-05-24 00:08:00,SystemResetWarning,0818.3,5.00,000.00,029.6,028.7,000.0,038.0,031.4,012.9,0000.0,0010.24,0003.41,0002.36
2024-05-24 00:09:00,SystemResetWarning,0818.3,5.00,000.00,029.7,028.9,000.0,038.0,031.4,013.1,0000.0,0010.86,0003.38,0002.31
2024-05-24 00:10:00,SystemResetWarning,0818.1,5.00,000.00,029.7,029.0,000.0,038.0,031.5,012.9,0000.0,0010.73,0003.33,0002.25
2024-05-24 00:11:00,SystemResetWarning,0818.3,5.00,000.00,029.8,029.1,000.0,038.0,031.6,012.7,0000.0,0010.39,0003.26,0002.20
2024-05-24 00:12:00,SystemResetWarning,0818.3,4.98,000.00,029.8,029.2,000.0,038.0,031.6,012.7,0000.0,0010.19,0003.26,0002.19
2024-05-24 00:13:00,SystemResetWarning,0818.3,5.00,000.00,029.9,029.3,000.0,038.0,031.7,012.8,0000.0,0009.39,0003.27,0002.19
2024-05-24 00:14:00,SystemResetWarning,0818.3,5.01,000.00,029.9,029.3,000.0,038.1,031.7,012.9,0000.0,0009.33,0003.28,0002.19
2024-05-24 00:15:00,SystemResetWarning,0818.2,5.01,000.00,029.9,029.4,000.0,038.1,031.7,012.7,0000.0,0009.27,0003.26,0002.20
2024-05-24 00:16:00,SystemResetWarning,0818.2,4.98,000.00,030.0,029.4,000.0,038.1,031.8,012.6,0000.0,0009.10,0003.27,0002.23
2024-05-24 00:17:00,SystemResetWarning,0818.2,4.99,000.00,030.0,029.5,000.0,038.1,031.8,012.7,0000.0,0009.10,0003.29,0002.26
2024-05-24 00:18:00,SystemResetWarning,0818.3,5.02,000.00,030.0,029.5,000.0,038.2,031.8,012.8,0000.0,0008.98,0003.32,0002.30
2024-05-24 00:19:00,SystemResetWarning,0818.3,5.00,000.00,030.1,029.5,000.0,038.2,031.9,013.0,0000.0,0008.75,0003.31,0002.32
2024-05-24 00:20:00,SystemResetWarning,0818.3,4.99,000.00,030.1,029.5,000.0,038.2,031.9,013.0,0000.0,0008.20,0003.35,0002.34
2024-05-24 00:21:00,SystemResetWarning,0818.3,5.01,000.00,030.1,029.6,000.0,038.2,031.9,013.1,0000.0,0008.24,0003.36,0002.36
2024-05-24 00:22:00,SystemResetWarning,0818.3,5.00,000.00,030.2,029.6,000.0,038.3,032.0,012.9,0000.0,0008.34,0003.39,0002.38
2024-05-24 00:23:00,SystemResetWarning,0818.3,5.01,000.00,030.2,029.6,000.0,038.3,032.0,012.8,0000.0,0008.34,0003.40,0002.40
2024-05-24 00:24:00,SystemResetWarning,0818.3,5.01,000.00,030.2,029.6,000.0,038.3,032.0,012.7,0000.0,0007.94,0003.42,0002.40
2024-05-24 00:25:00,SystemResetWarning,0818.3,4.99,000.00,030.3,029.7,000.0,038.4,032.0,012.8,0000.0,0007.61,0003.42,0002.40
2024-05-24 00:26:00,SystemResetWarning,0818.2,4.99,000.00,030.3,029.7,000.0,038.4,032.0,012.9,0000.0,0007.81,0003.42,0002.40
2024-05-24 00:27:00,SystemResetWarning,0818.1,5.00,000.00,030.3,029.7,000.0,038.4,032.0,012.8,0000.0,0007.96,0003.44,0002.40
2024-05-24 00:28:00,SystemResetWarning,0818.1,5.01,000.00,030.3,029.7,000.0,038.4,032.1,012.7,0000.0,0007.49,0003.42,0002.39
2024-05-24 00:29:00,SystemResetWarning,0818.1,5.01,000.00,030.3,029.7,000.0,038.5,032.1,012.7,0000.0,0007.60,0003.43,0002.39
2024-05-24 00:30:00,SystemResetWarning,0818.0,5.01,000.00,030.4,029.7,000.0,038.5,032.1,012.9,0000.0,0007.65,0003.42,0002.38
2024-05-24 00:31:00,SystemResetWarning,0817.9,4.99,000.00,030.4,029.7,000.0,038.5,032.1,012.7,0000.0,0007.74,0003.41,0002.38
2024-05-24 00:32:00,SystemResetWarning,0817.7,4.99,000.00,030.4,029.7,000.0,038.6,032.1,012.5,0000.0,0007.81,0003.43,0002.39
2024-05-24 00:33:00,SystemResetWarning,0817.8,5.01,000.00,030.4,029.7,000.0,038.6,032.1,012.7,0000.0,0007.96,0003.46,0002.37
2024-05-24 00:34:00,SystemResetWarning,0817.8,5.00,000.00,030.4,029.7,000.0,038.6,032.1,012.6,0000.0,0008.74,0003.52,0002.37
2024-05-24 00:35:00,SystemResetWarning,0817.8,5.01,000.00,030.4,029.8,000.0,038.6,032.2,012.8,0000.0,0009.11,0003.53,0002.35
2024-05-24 00:36:00,SystemResetWarning,0817.6,5.00,000.00,030.4,029.8,000.0,038.7,032.2,012.7,0000.0,0009.50,0003.54,0002.35
2024-05-24 00:37:00,SystemResetWarning,0817.6,5.00,000.00,030.5,029.8,000.0,038.7,032.2,012.8,0000.0,0009.40,0003.55,0002.35
2024-05-24 00:38:00,SystemResetWarning,0817.6,4.99,000.00,030.5,029.8,000.0,038.7,032.2,012.7,0000.0,0009.45,0003.59,0002.35
2024-05-24 00:39:00,SystemResetWarning,0817.7,5.00,000.00,030.5,029.8,000.0,038.8,032.2,012.8,0000.0,0009.75,0003.60,0002.34
2024-05-24 00:40:00,SystemResetWarning,0817.7,5.02,000.00,030.5,029.8,000.0,038.8,032.2,013.0,0000.0,0010.54,0003.59,0002.34
2024-05-24 00:41:00,SystemResetWarning,0817.6,4.99,000.00,030.5,029.9,000.0,038.8,032.3,012.8,0000.0,0010.81,0003.63,0002.34
2024-05-24 00:42:00,SystemResetWarning,0817.7,4.99,000.00,030.5,029.9,000.0,038.8,032.3,012.9,0000.0,0010.88,0003.66,0002.33
2024-05-24 00:43:00,SystemResetWarning,0817.7,5.00,000.00,030.6,029.9,000.0,038.8,032.3,012.8,0000.0,0011.49,0003.68,0002.33
2024-05-24 00:44:00,SystemResetWarning,0817.7,5.02,000.00,030.6,029.9,000.0,038.9,032.3,012.6,0000.0,0011.72,0003.64,0002.33
2024-05-24 00:45:00,SystemResetWarning,0817.8,4.99,000.00,030.6,029.9,000.0,038.9,032.3,012.7,0000.0,0011.05,0003.57,0002.31
2024-05-24 00:46:00,SystemResetWarning,0817.9,4.99,000.00,030.6,029.9,000.0,038.9,032.3,012.6,0000.0,0010.49,0003.53,0002.32
2024-05-24 00:47:00,SystemResetWarning,0817.9,5.01,000.00,030.6,029.9,000.0,038.9,032.4,012.6,0000.0,0010.34,0003.54,0002.32
2024-05-24 00:48:00,SystemResetWarning,0818.0,5.01,000.00,030.7,029.9,000.0,038.9,032.4,012.4,0000.0,0010.29,0003.58,0002.33
2024-05-24 00:49:00,SystemResetWarning,0818.0,5.00,000.00,030.7,030.0,000.0,038.9,032.4,012.5,0000.0,0010.14,0003.52,0002.32
2024-05-24 00:50:00,SystemResetWarning,0818.1,4.99,000.00,030.7,030.0,000.0,039.0,032.4,012.5,0000.0,0010.28,0003.54,0002.32
2024-05-24 00:51:00,SystemResetWarning,0818.2,4.99,000.00,030.7,030.0,000.0,039.0,032.4,012.3,0000.0,0009.29,0003.56,0002.33
2024-05-24 00:52:00,SystemResetWarning,0818.2,4.99,000.00,030.7,030.0,000.0,039.0,032.4,012.2,0000.0,0009.59,0003.57,0002.33
2024-05-24 00:53:00,SystemResetWarning,0818.3,5.00,000.00,030.7,030.0,000.0,039.0,032.5,012.3,0000.0,0009.71,0003.51,0002.32
2024-05-24 00:54:00,SystemResetWarning,0818.3,5.00,000.00,030.7,030.1,000.0,039.0,032.5,012.3,0000.0,0009.11,0003.48,0002.30
2024-05-24 00:55:00,SystemResetWarning,0818.4,5.01,000.00,030.8,030.1,000.0,039.0,032.5,012.4,0000.0,0008.62,0003.48,0002.28
2024-05-24 00:56:00,SystemResetWarning,0818.5,5.01,000.00,030.8,030.1,000.0,039.0,032.5,012.6,0000.0,0008.50,0003.48,0002.28
2024-05-24 00:57:00,SystemResetWarning,0818.4,5.00,000.00,030.8,030.1,000.0,039.0,032.5,012.7,0000.0,0008.40,0003.49,0002.26
2024-05-24 00:58:00,SystemResetWarning,0818.4,5.00,000.00,030.8,030.1,000.0,039.0,032.5,012.6,0000.0,0008.69,0003.51,0002.25
2024-05-24 00:59:00,SystemResetWarning,0818.4,4.99,000.00,030.8,030.1,000.0,039.0,032.5,012.5,0000.0,0008.98,0003.49,0002.24
